Location: Meanaryar
(48.4161°N, 4.7315°W)
Time: 15:05:51
(UTC+00:00)

Cosmos 1092 Rocket - Pass Details

Date: 18 January 2021
Orbit: 954 x 995 km, 83.0° (Epoch: 01 March)

Event Time Altitude Azimuth Distance (km) Brightness Sun altitude
Rises 21:19:25 0° 237° (WSW) 3,660 7.4 -42.9°
Reaches altitude 10° 21:22:45 10° 254° (WSW) 2,710 6.8 -43.4°
Maximum altitude 21:27:00 19° 298° (WNW) 2,129 6.2 -44.0°
Drops below altitude 10° 21:31:15 10° 342° (NNW) 2,704 6.6 -44.7°
Sets 21:34:36 0° 0° (N) 3,650 7.2 -45.2°
